Weather History for George, George Airport, South Africa

Change the Weather History Date:

Sunday, March 9, 2014

  Actual Average Record
Temperature  
Mean Temperature 62 °F -  
Max Temperature 67 °F 72 °F - ()
Min Temperature 57 °F 56 °F - ()
Degree Days  
Heating Degree Days 3    
Growing Degree Days 12 (Base 50)    
Moisture  
Dew Point 56 °F    
Average Humidity 83    
Maximum Humidity 94    
Minimum Humidity 62    
Precipitation  
Precipitation 0.04 in - - ()
Sea Level Pressure  
Sea Level Pressure 30.13 in    
Wind  
Wind Speed 6 mph ()    
Max Wind Speed 14 mph    
Max Gust Speed -    
Visibility 6.7 miles    
Events Rain    
T = Trace of Precipitation, MM = Missing Value Source: Averaged Metar Reports

Daily Weather History Graph

Daily Weather History Graph

Search for Another Location

Airport:

Trip Planner

Search our weather history database for the weather conditions in past years. The results will help you decide how hot, cold, wet, or windy it might be!

Date:

Astronomy

Mar. 09, 2014 Rise Set
Actual Time 6:24 AM SAST 6:56 PM SAST
Civil Twilight 5:59 AM SAST 7:21 PM SAST
Nautical Twilight 5:29 AM SAST 7:51 PM SAST
Astronomical Twilight 4:59 AM SAST 8:21 PM SAST
Moon 2:13 PM SAST (3/9) No Moon Set
Length of Visible Light 13h 22m
Length of Day
12h 31m
First Quarter, 58% of the Moon is Illuminated
Mar 9
First Quarter
Mar 16
Full
Mar 24
Last Quarter
Mar 30
New
Apr 7
First Quarter

Hourly Weather History & Observations

Time (SAST) Temp. Dew Point Humidity Pressure Visibility Wind Dir Wind Speed Gust Speed Precip Events Conditions
12:00 AM 59.0 °F 55.4 °F 88% 30.09 in 6.2 mi North 4.6 mph - N/A   Overcast
1:00 AM 60.8 °F 55.4 °F 82% 30.09 in 6.2 mi WNW 4.6 mph - N/A   Overcast
2:00 AM 59 °F 55 °F 84% 30.09 in 12 mi WNW 5.8 mph - -  
2:00 AM 59.0 °F 55.4 °F 88% 30.06 in 6.2 mi WNW 5.8 mph - N/A   Overcast
3:00 AM 59.0 °F 53.6 °F 82% 30.06 in 6.2 mi NW 5.8 mph - N/A   Mostly Cloudy
4:00 AM 59.0 °F 53.6 °F 82% 30.06 in 6.2 mi NW 5.8 mph - N/A   Overcast
5:00 AM 59 °F 54 °F 77% 30.09 in 12 mi NW 5.8 mph - -   Mostly Cloudy
5:00 AM 59.0 °F 53.6 °F 82% 30.06 in 6.2 mi NW 5.8 mph - N/A   Mostly Cloudy
6:00 AM 59.0 °F 55.4 °F 88% 30.09 in 6.2 mi NNW 3.5 mph - N/A   Mostly Cloudy
7:00 AM 59.0 °F 55.4 °F 88% 30.09 in 6.2 mi WNW 8.1 mph - N/A   Mostly Cloudy
8:00 AM 58 °F 55 °F 86% 30.15 in 2 mi WNW 10.4 mph - - Rain Light Rain
8:00 AM 57.2 °F 55.4 °F 94% 30.12 in 2.5 mi WNW 10.4 mph - N/A Rain Light Rain
9:00 AM 59.0 °F 55.4 °F 88% 30.15 in 5.6 mi NW 10.4 mph - N/A Rain Light Rain
10:00 AM 59.0 °F 55.4 °F 88% 30.15 in 6.2 mi NW 10.4 mph - N/A   Mostly Cloudy
11:00 AM 61 °F 57 °F 82% 30.19 in 12 mi WNW 6.9 mph - -   Mostly Cloudy
11:00 AM 60.8 °F 57.2 °F 88% 30.18 in 6.2 mi WNW 6.9 mph - N/A   Mostly Cloudy
12:00 PM 64.4 °F 57.2 °F 77% 30.18 in 6.2 mi Variable 2.3 mph - N/A   Mostly Cloudy
1:00 PM 62.6 °F 57.2 °F 82% 30.15 in 6.2 mi South 6.9 mph - N/A   Mostly Cloudy
2:00 PM 65 °F 56 °F 65% 30.16 in 12 mi NNW 5.8 mph - -   Mostly Cloudy
2:00 PM 64.4 °F 55.4 °F 73% 30.15 in 6.2 mi NNW 5.8 mph - N/A   Mostly Cloudy
3:00 PM 66.2 °F 53.6 °F 64% 30.15 in 6.2 mi South 8.1 mph - N/A   Scattered Clouds
4:00 PM 64.4 °F 57.2 °F 77% 30.15 in 6.2 mi South 9.2 mph - N/A   Mostly Cloudy
5:00 PM 65 °F 55 °F 62% 30.15 in 12 mi SSE 6.9 mph - -   Mostly Cloudy
5:00 PM 64.4 °F 55.4 °F 73% 30.15 in 6.2 mi SE 6.9 mph - N/A   Mostly Cloudy
6:00 PM 60.8 °F 57.2 °F 88% 30.15 in 6.2 mi SE 6.9 mph - N/A   Mostly Cloudy
7:00 PM 59.0 °F 57.2 °F 94% 30.15 in 3.7 mi ESE 9.2 mph - N/A   Mostly Cloudy
8:00 PM 59 °F 57 °F 92% 30.17 in 2 mi ESE 12.7 mph - - Rain Light Rain
8:00 PM 59.0 °F 57.2 °F 94% 30.15 in - SE 13.8 mph - N/A Rain Light Rain
10:00 PM 59.0 °F 57.2 °F 94% 30.18 in 6.2 mi East 10.4 mph - N/A   Mostly Cloudy
11:00 PM 59.0 °F 55.4 °F 88% 30.15 in 6.2 mi East 9.2 mph - N/A   Mostly Cloudy